x

9414523 - Redwood City, Ca (rtyc1) Weather Station

11:54am - Wed 17th Sep 2014 All times are PDT. -7 hours from GMT.

  • Wind
    5mph, 6mph gusts
  • Sea Temp 71°f
  • Air Temp 68°f
  • Sea Pressure 1009.2mb
  • 9414523 - Redwood City, Ca
  • 9414523 - Redwood City, Ca

More Historic Weather Station data

Upgrade to MSW Pro to gain access to the past 30 days of data for over 8000 Wavebouys and Weather Stations around the globe.

Join Pro

Comparision Forecast

View Surf forecast
   
Wed 09/17 11:54am 5 6 mph 1009.2mb 71f 68f
11:48am 5 8 mph 1009.3mb 71f 67f
11:42am 6 8 mph 1009.3mb 71f 67f
11:36am 6 9 mph 1009.3mb 71f 67f
11:30am 7 9 mph 1009.4mb 71f 67f
11:24am 6 8 mph 1009.4mb 71f 67f
11:18am 6 8 mph 1009.4mb 71f 67f
11:12am 6 7 mph 1009.5mb 71f 67f
11:06am 6 8 mph 1009.5mb 71f 67f
11:00am 6 7 mph 1009.6mb 71f 66f
10:54am 6 7 mph 1009.6mb 71f 67f
10:48am 3 5 mph 1009.6mb 71f 67f
10:42am 3 5 mph 1009.6mb 71f 67f
10:36am 2 6 mph 1009.6mb 71f 66f
10:30am 5 6 mph 1009.5mb 71f 66f
10:24am 1 5 mph 1009.5mb 71f 67f
10:18am 2 5 mph 1009.5mb 71f 66f
10:12am 3 6 mph 1009.6mb 71f 66f
10:06am 2 3 mph 1009.6mb 71f 66f
10:00am 3 6 mph 1009.6mb 71f 66f
9:54am 2 3 mph 1009.7mb 71f 66f
9:48am 1 3 mph 1009.7mb 71f 65f
9:42am 5
mph
1009.7mb 71f 65f
9:36am 1 5 mph 1009.6mb 71f 65f
9:30am 2 5 mph 1009.6mb 71f 65f
9:24am 2 3 mph 1009.7mb 71f 65f
9:18am 2 3 mph 1009.7mb 71f 65f
9:12am 2 5 mph 1009.7mb 71f 65f
9:06am 3 6 mph 1009.7mb 71f 65f
9:00am  -  3 mph 1009.7mb 71f 64f
8:54am 1 6 mph 1009.7mb 71f 64f
8:48am 3 5 mph 1009.7mb 71f 64f
8:42am 2 3 mph 1009.7mb 71f 64f
8:36am  -  3 mph 1009.7mb 71f 64f
8:30am 2 3 mph 1009.6mb 71f 64f
8:24am  -  3 mph 1009.7mb 71f 64f
8:18am 3 5 mph 1009.7mb 71f 63f
8:12am 1 3 mph 1009.6mb 71f 64f
8:06am 1 6 mph 1009.5mb 71f 63f
8:00am 1 2 mph 1009.5mb 71f 63f
7:54am 1 2 mph 1009.5mb 71f 63f
7:48am  -  2 mph 1009.5mb 72f 64f
7:42am  -  2 mph 1009.5mb 72f 63f
7:36am 1 3 mph 1009.4mb 72f 63f
7:30am 2 3 mph 1009.3mb 72f 63f
7:24am 3 5 mph 1009.3mb 72f 63f
7:18am 3
mph
1009.3mb 72f 63f
7:12am 2 3 mph 1009.3mb 72f 63f
7:06am 2 3 mph 1009.3mb 72f 63f
7:00am 1 2 mph 1009.2mb 72f 63f
6:54am  -  1 mph 1009.3mb 72f 63f
6:48am 2 3 mph 1009.3mb 72f 63f
6:42am 2
mph
1009.2mb 72f 62f
6:36am 1 3 mph 1009.2mb 72f 62f
6:30am 2 3 mph 1009.2mb 72f 62f
6:24am 3
mph
1009.1mb 72f 62f
6:18am 2 3 mph 1009.1mb 72f 62f
6:12am 3
mph
1009.1mb 72f 62f
6:06am 2 3 mph 1009.1mb 72f 62f
6:00am 3 5 mph 1009mb 72f 62f
5:54am 3 6 mph 1009mb 72f 62f
5:48am 3 5 mph 1009mb 72f 62f
5:42am 5
mph
1009mb 72f 62f
5:36am 5 6 mph 1009mb 72f 61f
5:30am 3 5 mph 1009mb 72f 61f
5:24am 3
mph
1008.9mb 72f 61f
5:18am 3
mph
1008.9mb 72f 61f
5:12am 2 3 mph 1008.9mb 72f 61f
5:06am 2 3 mph 1008.9mb 72f 61f
5:00am 3 5 mph 1009mb 72f 61f
4:54am 3 5 mph 1008.9mb 72f 62f
4:48am 3 5 mph 1008.9mb 72f 61f
4:42am 3 5 mph 1008.9mb 72f 62f
4:36am 3 5 mph 1008.9mb 72f 62f
4:30am 2 3 mph 1008.9mb 72f 62f
4:24am 3
mph
1008.9mb 72f 62f
4:18am 3 5 mph 1009mb 72f 62f
4:12am 3 5 mph 1009mb 72f 62f
4:06am 3 5 mph 1009mb 72f 62f
4:00am 3 5 mph 1009mb 72f 62f
3:54am 3 5 mph 1009mb 72f 62f
3:48am 5 6 mph 1009mb 72f 62f
3:42am 3 5 mph 1009mb 72f 63f
3:36am 3 5 mph 1009mb 72f 63f
3:30am 3 5 mph 1009mb 72f 63f
3:24am 2 3 mph 1009.1mb 72f 64f
3:18am 2 3 mph 1009.1mb 72f 64f
3:12am 2 3 mph 1009.1mb 72f 64f
3:06am 2 3 mph 1009.1mb 72f 64f
3:00am 2 3 mph 1009.1mb 72f 63f
2:54am 3 5 mph 1009.1mb 72f 64f
2:48am 5 6 mph 1009.2mb 72f 64f
2:42am 3
mph
1009.2mb 72f 64f
2:36am 2 3 mph 1009.1mb 72f 64f
2:30am 2 3 mph 1009.1mb 72f 64f
2:24am 2 3 mph 1009.1mb 72f 64f
2:18am 1 2 mph 1009.2mb 72f 64f
2:12am 2
mph
1009.2mb 72f 64f
2:06am 1 2 mph 1009.2mb 72f 64f
2:00am 2
mph
1009.3mb 72f 64f
1:54am 2
mph
1009.3mb 72f 64f
1:48am 2 3 mph 1009.3mb 72f 64f
1:42am 2 3 mph 1009.3mb 72f 64f
1:36am 2 3 mph 1009.4mb 72f 64f
1:30am 3 5 mph 1009.3mb 72f 64f
1:24am 3 5 mph 1009.3mb 72f 65f
1:18am 3 5 mph 1009.4mb 72f 65f
1:12am 3 5 mph 1009.4mb 72f 64f
1:06am 2 3 mph 1009.4mb 72f 64f
1:00am 3
mph
1009.4mb 72f 64f
12:54am 3
mph
1009.5mb 72f 64f
12:48am 5
mph
1009.5mb 72f 64f
12:42am 3 5 mph 1009.6mb 72f 64f
12:36am 3 5 mph 1009.6mb 72f 64f
12:30am 5
mph
1009.5mb 72f 64f
12:24am 3 5 mph 1009.5mb 72f 64f
12:18am 5 6 mph 1009.5mb 72f 64f
12:12am 5 6 mph 1009.6mb 72f 64f
12:06am 6 8 mph 1009.6mb 72f 64f
12:00am 7 8 mph 1009.7mb 72f 64f
Tue 09/16 11:54pm 6 7 mph 1009.8mb 72f 64f
11:48pm 3 6 mph 1009.8mb 72f 65f
11:42pm 6
mph
1009.9mb 72f 65f
11:36pm 5 6 mph 1009.9mb 72f 65f
11:30pm 5 7 mph 1009.9mb 72f 65f
11:24pm 6 8 mph 1010mb 72f 65f
11:18pm 6 7 mph 1009.9mb 72f 65f
11:12pm 7 10 mph 1009.9mb 72f 65f
11:06pm 9 10 mph 1010mb 72f 65f
11:00pm 8 9 mph 1010mb 72f 65f
10:54pm 7 9 mph 1010mb 72f 65f
10:48pm 8 11 mph 1010mb 73f 65f
10:42pm 9 11 mph 1010.1mb 73f 65f
10:36pm 8 10 mph 1010.1mb 73f 65f
10:30pm 8 9 mph 1010mb 73f 65f
10:24pm 9 11 mph 1009.9mb 73f 65f
10:18pm 8 10 mph 1010mb 73f 65f
10:12pm 8 10 mph 1009.9mb 73f 65f
10:06pm 7 9 mph 1010mb 73f 65f
10:00pm 7 8 mph 1009.9mb 73f 66f
9:54pm 7 8 mph 1010mb 73f 66f
9:48pm 7 8 mph 1010mb 73f 65f
9:42pm 7 10 mph 1010mb 73f 66f
9:36pm 7 10 mph 1010mb 73f 66f
9:30pm 8 10 mph 1009.9mb 73f 66f
9:24pm 9 10 mph 1009.9mb 73f 66f
9:18pm 7 9 mph 1009.8mb 73f 66f
9:12pm 9 13 mph 1009.7mb 73f 66f
9:06pm 10 11 mph 1009.7mb 73f 66f
9:00pm 10 11 mph 1009.7mb 73f 66f
8:54pm 9 11 mph 1009.7mb 73f 67f
8:48pm 10 13 mph 1009.7mb 73f 67f
8:42pm 11 14 mph 1009.7mb 73f 67f
8:36pm 10 13 mph 1009.7mb 73f 67f
8:30pm 10 13 mph 1009.6mb 73f 68f
8:24pm 10 13 mph 1009.5mb 73f 68f
8:18pm 11 15 mph 1009.5mb 73f 68f
8:12pm 13 15 mph 1009.5mb 73f 68f
8:06pm 13 14 mph 1009.4mb 73f 68f
8:00pm 14 15 mph 1009.2mb 73f 68f
7:54pm 14 15 mph 1009.1mb 73f 68f
7:48pm 10 14 mph 1009.2mb 73f 69f
7:42pm 11 14 mph 1009.1mb 73f 69f
7:36pm 13 15 mph 1009.1mb 73f 69f
7:30pm 13 14 mph 1009.1mb 73f 69f
7:24pm 14 15 mph 1009.2mb 73f 69f
7:18pm 13 16 mph 1009mb 73f 69f
7:12pm 13 16 mph 1009mb 73f 70f
7:06pm 14 17 mph 1008.9mb 73f 70f
7:00pm 13 15 mph 1008.9mb 73f 71f
6:54pm 10 14 mph 1008.9mb 73f 71f
6:48pm 9 11 mph 1008.9mb 73f 71f
6:42pm 9 13 mph 1008.9mb 73f 71f
6:36pm 11 14 mph 1008.9mb 73f 71f
6:30pm 13 15 mph 1008.9mb 73f 71f
6:24pm 11 15 mph 1008.9mb 73f 72f
6:18pm 11 14 mph 1008.9mb 73f 73f
6:12pm 13 14 mph 1008.9mb 73f 73f
6:06pm 13 15 mph 1008.9mb 73f 73f
6:00pm 11 14 mph 1008.9mb 73f 74f
5:54pm 10 13 mph 1008.9mb 73f 75f
5:48pm 10 11 mph 1008.9mb 73f 75f
5:42pm 10 14 mph 1008.9mb 73f 74f
5:36pm 14 15 mph 1008.9mb 73f 74f
5:30pm 13 16 mph 1008.9mb 73f 74f
5:24pm 14 16 mph 1009mb 73f 74f
5:18pm 13 16 mph 1009mb 73f 75f
5:12pm 14 16 mph 1009mb 73f 75f
5:06pm 15 16 mph 1008.9mb 73f 74f
5:00pm 14 16 mph 1008.9mb 73f 75f
4:54pm 14 16 mph 1008.9mb 73f 75f
4:48pm 14 16 mph 1009mb 73f 75f
4:42pm 14 16 mph 1009mb 73f 76f
4:36pm 14 16 mph 1009.1mb 73f 76f
4:30pm 15 17 mph 1009.2mb 73f 76f
4:24pm 15 17 mph 1009.2mb 73f 75f
4:18pm 16 17 mph 1009.3mb 73f 76f
4:12pm 16 18 mph 1009.3mb 73f 75f
4:06pm 16 18 mph 1009.4mb 73f 75f
4:00pm 15 17 mph 1009.4mb 73f 76f
3:54pm 15 20 mph 1009.5mb 73f 76f
3:48pm 16 17 mph 1009.6mb 73f 75f
3:42pm 15 17 mph 1009.6mb 73f 75f
3:36pm 14 15 mph 1009.6mb 73f 76f
3:30pm 13 15 mph 1009.6mb 73f 76f
3:24pm 14 16 mph 1009.7mb 73f 76f
3:18pm 15 18 mph 1009.8mb 73f 76f
3:12pm 16 18 mph 1009.9mb 73f 76f
3:06pm 15 18 mph 1010.1mb 73f 76f
3:00pm 16 18 mph 1010.2mb 73f 76f
2:54pm 16 18 mph 1010.2mb 73f 76f
2:48pm 15 17 mph 1010.4mb 73f 76f
2:42pm 14 17 mph 1010.4mb 73f 76f
2:36pm 15 18 mph 1010.4mb 72f 76f
2:30pm 15 18 mph 1010.5mb 72f 75f
2:24pm 16 18 mph 1010.6mb 72f 76f
2:18pm 15 17 mph 1010.7mb 72f 75f
2:12pm 14 17 mph 1010.7mb 72f 76f
2:06pm 13 14 mph 1010.8mb 72f 75f
2:00pm 11 14 mph 1010.9mb 72f 75f
1:54pm 11 15 mph 1010.9mb 72f 75f
1:48pm 9 13 mph 1011mb 72f 74f
1:42pm 9 13 mph 1011.1mb 72f 74f
1:36pm 9 13 mph 1011.1mb 72f 74f
1:30pm 7 10 mph 1011.1mb 72f 74f
1:24pm 6 10 mph 1011.2mb 72f 74f
1:18pm 7 10 mph 1011.3mb 72f 73f
1:12pm 5 9 mph 1011.4mb 72f 73f
1:06pm 5 8 mph 1011.4mb 72f 73f
1:00pm 7 8 mph 1011.5mb 72f 72f
12:54pm 6 8 mph 1011.6mb 72f 72f
12:48pm 6 7 mph 1011.7mb 72f 72f
12:42pm 5 8 mph 1011.8mb 72f 71f
12:36pm 3 7 mph 1011.9mb 72f 71f
12:30pm 7 9 mph 1011.9mb 72f 70f
12:24pm 7 9 mph 1012mb 72f 70f
12:18pm 7 9 mph 1012mb 71f 69f
12:12pm 6 8 mph 1012mb 71f 69f
12:06pm 7 9 mph 1012.1mb 71f 69f
12:00pm 7 8 mph 1012.2mb 71f 69f
11:54am 5 10 mph 1012.3mb 71f 69f
11:48am 6 8 mph 1012.4mb 71f 69f
11:42am 5 7 mph 1012.5mb 71f 69f
11:36am 6 9 mph 1012.5mb 71f 68f
11:30am 6 9 mph 1012.5mb 71f 68f
11:24am 6 8 mph 1012.6mb 71f 68f
11:18am 6
mph
1012.6mb 71f 68f
11:12am 6 7 mph 1012.7mb 71f 67f
11:06am 5 6 mph 1012.7mb 71f 67f
11:00am 3 6 mph 1012.7mb 71f 67f
10:54am 3 6 mph 1012.8mb 71f 67f
10:48am 3 5 mph 1012.8mb 71f 67f
10:42am 5 7 mph 1012.9mb 71f 67f
10:36am 5
mph
1012.9mb 71f 67f
10:30am 3 5 mph 1012.8mb 71f 67f
10:24am 3 5 mph 1012.9mb 71f 67f
10:18am 2 5 mph 1012.9mb 71f 67f
10:12am 2 3 mph 1012.9mb 71f 67f
10:06am 2 3 mph 1012.9mb 71f 67f
10:00am 1 2 mph 1013mb 71f 67f
9:18am  -  mph 1013.2mb - -
9:12am  -  mph 1013.2mb - -
9:06am  -  mph 1013.1mb - -
9:00am  -  mph 1013mb - -
8:54am  -  mph 1013mb - -
8:48am  -  2 mph 1013mb - 64f
8:42am 1 2 mph 1012.9mb - 64f
8:36am 1 2 mph 1013mb - 64f
8:30am  -  2 mph 1013mb 71f 64f
8:24am 1 2 mph 1013mb 71f 64f
8:18am 1 2 mph 1012.9mb 71f 63f
8:12am 1 2 mph 1013mb 71f 63f
8:06am 2
mph
1013.1mb 71f 62f
8:00am 2
mph
1013.1mb 71f 62f
7:54am 2 3 mph 1013.1mb 71f 61f
7:48am 2 3 mph 1013.1mb 71f 61f
7:42am 2 3 mph 1013.1mb 71f 60f
7:30am 1 2 mph 1013mb - -
7:24am  -  mph - 71f 59f
7:18am  -  mph - 71f 59f
7:12am  -  mph 1013mb - -
6:54am  -  mph 1013mb - -
6:48am  -  mph - - 59f
6:36am  -  mph - - 59f
6:24am  -  mph - - 59f
6:18am  -  mph - - 59f
6:12am  -  mph - - 59f
6:06am  -  mph - - 59f
6:00am 2 3 mph - - 59f
5:54am 2 5 mph - - 59f
5:48am 3
mph
1012.9mb - 59f
5:42am 1 3 mph 1012.9mb - 59f
5:36am 3
mph
1012.8mb - 59f
5:30am 2 3 mph - - 59f
5:24am 3 5 mph - - 59f
5:18am 2 3 mph 1012.7mb - 59f
5:12am 1 2 mph 1012.6mb - 58f
5:06am 2 3 mph 1012.6mb - 59f
5:00am 2
mph
1012.6mb 71f 59f
4:54am 1 2 mph 1012.6mb 71f 60f
4:48am 1
mph
1012.6mb 71f 60f
4:42am 1
mph
1012.6mb 71f 60f
4:36am  -  1 mph 1012.6mb 71f 61f
4:30am  -  mph 1012.7mb 71f 61f
4:24am  -  mph 1012.7mb 71f 61f
4:18am 2 3 mph 1012.7mb 71f 62f
4:12am 3 5 mph 1012.7mb 71f 62f
4:06am 2 3 mph 1012.7mb 71f 61f
4:00am 2
mph
1012.7mb 71f 61f
3:54am 2
mph
1012.8mb 71f 61f
3:48am 2 3 mph 1012.8mb 71f 61f
3:42am 3
mph
1012.9mb 71f 61f
3:36am 2 3 mph 1012.8mb 71f 61f
3:30am 1 3 mph - 71f 61f
3:24am 2 3 mph - 71f 62f
3:18am 2
mph
1013mb 71f 62f
3:12am 1 2 mph 1013mb 71f 61f
3:06am 2
mph
1013mb 71f 61f
3:00am 2
mph
1012.9mb 72f 61f
2:54am 2
mph
1013mb 71f 62f
2:48am 2
mph
1013mb 72f 62f
2:42am  -  1 mph 1013.1mb 72f 62f
2:36am  -  2 mph 1013.2mb 72f 62f
2:30am 2 3 mph 1013.2mb 72f 62f
2:24am 2 3 mph 1013.3mb 72f 62f
2:18am  -  mph 1013.4mb 72f 62f
2:00am 1
mph
1013.5mb 72f 62f
1:54am 1 2 mph 1013.5mb 72f 63f
1:48am 2 3 mph 1013.5mb 72f 63f
1:42am  -  1 mph 1013.5mb 72f 62f
1:36am  -  1 mph 1013.5mb 72f 63f
1:30am  -  2 mph 1013.5mb 72f 63f
1:24am 3 5 mph 1013.5mb 72f 63f
1:18am 2 3 mph 1013.5mb 72f 63f
1:12am 2 3 mph 1013.6mb 72f 64f
1:06am 2 3 mph 1013.6mb 72f 64f
1:00am 1 2 mph 1013.6mb 72f 65f
12:54am 1 2 mph 1013.6mb 72f 65f
12:48am 2 3 mph 1013.7mb 72f 65f
12:42am 2 3 mph 1013.7mb 72f 65f
12:36am 2 3 mph 1013.7mb 72f 65f
12:30am 2 3 mph 1013.7mb 72f 65f
12:24am 2 3 mph 1013.7mb 72f 65f
12:18am 3
mph
1013.7mb - 65f
12:12am 2 3 mph 1013.7mb - 65f
12:06am 3 5 mph 1013.6mb - 65f
12:00am 3 5 mph 1013.6mb - 65f
Mon 09/15 11:54pm  -  mph 1013.6mb - 65f
11:48pm 5
mph
1013.6mb - 65f
11:42pm  -  mph - - 65f
11:30pm  -  mph - - 65f
11:24pm  -  mph - - 66f
11:18pm  -  mph - - 66f
11:12pm  -  mph - - 66f
11:06pm  -  mph - - 66f
11:00pm  -  mph - - 66f
10:54pm  -  mph - - 66f
10:48pm  -  mph - 72f 66f
10:42pm  -  mph - 72f 66f
10:36pm  -  mph - 72f 67f
10:30pm  -  mph 1013.3mb 72f 67f
10:24pm 9 11 mph 1013.3mb 72f 67f
10:18pm 8 10 mph 1013.2mb 72f 67f
10:12pm 7 9 mph 1013.2mb 72f 67f
10:06pm 6 8 mph 1013.1mb 72f 67f
10:00pm  -  mph 1013.1mb 72f -
9:54pm 8 10 mph 1013mb 72f -
9:48pm  -  mph 1013mb 72f 67f
9:42pm 8 10 mph 1012.9mb 72f 67f
9:36pm 8 10 mph 1012.9mb 72f 67f
9:30pm  -  mph - 72f -
9:24pm  -  mph - 72f -
9:18pm  -  mph - - 68f
9:12pm  -  mph - - 67f
9:06pm  -  mph - - 68f
9:00pm  -  mph 1012.7mb - -
8:54pm  -  mph 1012.6mb - -
8:48pm  -  mph 1012.6mb - 68f
8:42pm  -  mph 1012.6mb - 68f
8:36pm  -  mph 1012.5mb - 68f
8:30pm  -  mph 1012.5mb - 68f
8:24pm 10 11 mph 1012.4mb - 68f
8:18pm  -  mph 1012.3mb 72f 68f
8:12pm  -  mph 1012.2mb 72f 68f
8:06pm  -  mph 1012.1mb 72f 68f
8:00pm 11 14 mph - - 68f
7:54pm 11 13 mph - - 68f
7:48pm  -  mph 1012mb - -
7:42pm  -  mph 1011.9mb - -
7:36pm  -  mph 1011.8mb - -
7:30pm  -  mph - 72f 69f
7:24pm  -  mph - 72f 69f
7:18pm 9 14 mph - 72f 69f
7:12pm 10 14 mph - 72f 70f
7:06pm 11 15 mph - 72f 70f
7:00pm 10 14 mph 1011.9mb 72f 70f
6:54pm 10 13 mph 1011.9mb 72f 70f
6:48pm 10 14 mph 1011.9mb 72f 71f
6:42pm 13 16 mph 1011.9mb 72f 71f
6:36pm 14 16 mph 1011.9mb 72f 71f
6:30pm 14 15 mph 1011.8mb 72f 71f
6:24pm 13 17 mph 1011.7mb 72f 72f
6:18pm 13 18 mph 1011.7mb 72f 72f
6:12pm 15 17 mph 1011.7mb 72f 72f
6:06pm 16 20 mph 1011.6mb 72f 72f
6:00pm 15 18 mph 1011.7mb 72f 72f
5:54pm 15 18 mph 1011.7mb 72f 73f
5:48pm 15 17 mph 1011.7mb 72f 73f
5:42pm 14 18 mph 1011.6mb 72f 73f
5:36pm 14 18 mph 1011.6mb 72f 73f
5:30pm 15 17 mph 1011.6mb 72f 73f
5:24pm 14 18 mph 1011.5mb 72f 74f
5:18pm 15 18 mph 1011.5mb 72f 74f
5:12pm 15 18 mph 1011.5mb 72f 74f
5:06pm 15 20 mph 1011.5mb 72f 74f
5:00pm 14 22 mph 1011.5mb 72f 75f
4:54pm 14 20 mph 1011.5mb 72f 75f
4:48pm 16 20 mph 1011.6mb 72f 76f
4:42pm 14 18 mph 1011.6mb 72f 75f
4:36pm 16 18 mph 1011.6mb 72f 76f
4:30pm 15 18 mph 1011.6mb 72f 76f
4:24pm 14 18 mph 1011.7mb 72f 76f
4:18pm 14 18 mph 1011.7mb 72f 76f
4:12pm 16 18 mph 1011.7mb 72f 76f
4:06pm 15 20 mph 1011.6mb 72f 75f
4:00pm 17 21 mph 1011.6mb 72f 75f
3:54pm 16 21 mph 1011.6mb 72f 74f
3:48pm 16 23 mph 1011.6mb 72f 74f
3:42pm 21 24 mph 1011.5mb 72f 73f
3:36pm 18 23 mph 1011.5mb 72f 73f
3:30pm 22 24 mph 1011.5mb 72f 73f
3:24pm 20 23 mph 1011.6mb 72f 73f
3:18pm 20 22 mph 1011.7mb 72f 73f
3:12pm 18 22 mph 1011.7mb 72f 73f
3:06pm 18 21 mph 1011.7mb 72f 73f
3:00pm 17 21 mph 1011.7mb 72f 73f
2:54pm 18 21 mph 1011.7mb 72f 73f
2:48pm 18 21 mph 1011.8mb 72f 73f
2:42pm 16 20 mph 1011.8mb 72f 73f
2:36pm 16 20 mph 1011.9mb 72f 73f
2:30pm 17 20 mph 1012mb 72f 73f
2:24pm 16 21 mph 1012mb 72f 73f
2:18pm 16 20 mph 1012mb 72f 72f
2:12pm 16 18 mph 1012.1mb 72f 72f
2:06pm 14 18 mph 1012.1mb 72f 72f
2:00pm 13 17 mph 1012.2mb 72f 71f
1:54pm 14 17 mph 1012.2mb 72f 70f
1:48pm 10 14 mph 1012.3mb 72f 70f
1:42pm 8 14 mph 1012.3mb 72f 69f
1:36pm 8 13 mph 1012.4mb 72f 69f
1:30pm 8 11 mph 1012.5mb 72f 69f
1:24pm 9 11 mph 1012.5mb 72f 68f
1:18pm 10 14 mph 1012.5mb 72f 68f
1:12pm 9 14 mph 1012.6mb 72f 67f
1:06pm 10 14 mph 1012.6mb 72f 67f
1:00pm 9 13 mph 1012.7mb 72f 67f
12:54pm 9 11 mph 1012.7mb 72f 67f
12:48pm 9 13 mph 1012.7mb 72f 67f
12:42pm 9 11 mph 1012.7mb 72f 67f
12:36pm 7 9 mph 1012.7mb 71f 67f
12:30pm 7 9 mph 1012.8mb 71f 67f
12:24pm 7 10 mph 1012.8mb 71f 67f
12:18pm 6 10 mph 1012.8mb 71f 67f
12:12pm 7 9 mph 1012.8mb 71f 66f
12:06pm 7 10 mph 1012.8mb 71f 67f
12:00pm 7 9 mph 1012.8mb 71f 67f
11:54am 8 13 mph 1012.9mb 71f 66f
11:48am 9 10 mph 1012.9mb 71f 66f
11:42am 10 13 mph 1012.9mb 71f 66f
11:36am 8 10 mph 1013mb 71f 66f
11:30am 8 13 mph 1013mb 71f 66f
11:24am 7 11 mph 1013mb 71f 66f
11:18am 9 13 mph 1013mb 71f 66f
11:12am 8 11 mph 1012.9mb 71f 65f
11:06am 8 11 mph 1012.9mb 71f 65f
11:00am 8 11 mph 1013mb 71f 65f
10:54am 9 11 mph 1013mb 71f 66f
10:48am 9 14 mph 1013mb 71f 65f
10:42am 9 13 mph 1013mb 71f 65f
10:36am 9 11 mph 1013mb 71f 65f
10:30am 8 11 mph 1013mb 71f 65f
10:24am 7 10 mph 1013mb 71f 65f
10:18am 2 6 mph 1013mb 71f 66f
10:12am 3 6 mph 1013mb 71f 65f
10:06am 2 7 mph 1013.1mb 71f 65f
10:00am 3 6 mph 1013mb 71f 65f
9:54am 6 8 mph 1013mb 71f 65f
9:48am 6 7 mph 1012.9mb 71f 65f
9:42am 5 7 mph 1012.9mb 71f 64f
9:36am 7 9 mph 1012.9mb 71f 64f
9:30am 7 9 mph 1012.9mb 71f 64f
9:24am 6 9 mph 1012.9mb 71f 64f
9:18am 8 9 mph 1012.9mb 71f 64f
9:12am 8 9 mph 1012.9mb 71f 64f
9:06am 6 8 mph 1012.8mb 71f 63f
9:00am 7 8 mph 1012.8mb 71f 63f
8:54am 5 7 mph 1012.7mb 71f 63f
8:48am 5 7 mph 1012.7mb 71f 63f
8:42am 5 6 mph 1012.6mb 71f 63f
8:36am 5 6 mph 1012.5mb 71f 62f
8:30am 3 5 mph 1012.5mb 71f 62f
8:24am 2 5 mph 1012.4mb 71f 62f
8:18am 3 5 mph 1012.4mb 71f 62f
8:12am 2 3 mph 1012.3mb 71f 62f
8:06am 1 2 mph 1012.3mb 71f 62f
8:00am 1 2 mph 1012.2mb 71f 62f
7:54am 1 2 mph 1012.1mb 71f 61f
7:48am 1 2 mph 1012.2mb 71f 61f
7:42am 2
mph
1012.1mb 71f 61f
7:36am 2 3 mph 1012.1mb 71f 61f
7:30am 3
mph
1012.1mb 71f 61f
7:24am 2 3 mph 1012mb 71f 61f
7:18am 2
mph
1011.9mb 71f 61f
7:12am 2
mph
1011.9mb 71f 61f
7:06am 1 2 mph 1011.9mb 71f 61f
7:00am  -  2 mph 1011.8mb 71f 61f
6:54am 1 2 mph 1011.7mb 71f 61f
6:48am 2 3 mph 1011.7mb 71f 61f
6:42am 2 3 mph 1011.7mb 71f 61f
6:36am 1 2 mph 1011.6mb 71f 61f
6:30am 1 2 mph 1011.5mb 71f 61f
6:24am  -  2 mph 1011.6mb 71f 61f
6:18am 2
mph
1011.5mb 71f 61f
6:12am 1 2 mph 1011.4mb 71f 61f
6:06am  -  1 mph 1011.4mb 71f 61f
6:00am  -  2 mph 1011.4mb 71f 62f
5:54am 1 2 mph 1011.4mb 71f 62f
5:48am  -  1 mph 1011.3mb 71f 61f
5:42am  -  1 mph 1011.3mb 71f 61f
5:36am  -  1 mph 1011.3mb 71f 61f
5:30am  -  2 mph 1011.2mb 71f 61f
5:24am  -  1 mph 1011.1mb 71f 61f
5:18am  -  mph 1011.1mb 71f 61f
5:12am  -  1 mph 1011mb 71f 60f
5:06am 1 2 mph 1011mb 71f 60f
5:00am 1
mph
1010.9mb 71f 61f
4:54am 1 2 mph 1011mb 71f 61f
4:48am 1 2 mph 1011mb 72f 61f
4:42am 2
mph
1011mb 72f 61f
4:36am 2 3 mph 1010.9mb 72f 61f
4:30am 3 5 mph 1010.8mb 72f 61f
4:24am 2 3 mph 1010.7mb 72f 61f
4:18am 1 2 mph 1010.7mb 72f 61f
4:12am 2 3 mph 1010.7mb 72f 61f
4:06am 1 2 mph 1010.6mb 72f 61f
4:00am 2 5 mph 1010.7mb 72f 61f
3:54am 3 5 mph 1010.8mb 72f 61f
3:48am 1 2 mph 1010.6mb 72f 61f
3:42am 2
mph
1010.5mb 72f 61f
3:36am 1 3 mph 1010.5mb 72f 61f
3:30am 3
mph
1010.6mb 72f 62f
3:24am 5 6 mph 1010.6mb 72f 62f
3:18am 5
mph
1010.7mb 72f 62f
3:12am 3 6 mph 1010.6mb 72f 62f
3:06am 5 6 mph 1010.7mb 72f 62f
3:00am 3 6 mph 1010.7mb 72f 62f
2:54am 5 6 mph 1010.8mb 72f 62f
2:48am 5 6 mph 1010.8mb 72f 62f
2:42am 5
mph
1010.8mb 72f 62f
2:36am 2 5 mph 1010.6mb 72f 62f
2:30am 3 6 mph 1010.7mb 72f 62f
2:24am 5 6 mph 1010.7mb 72f 62f
2:18am 5 6 mph 1010.8mb 72f 62f
2:12am 6 7 mph 1010.8mb 72f 62f
2:06am 6 7 mph 1010.7mb 72f 62f
2:00am 6
mph
1010.6mb 72f 62f
1:54am 6
mph
1010.6mb 72f 63f
1:48am 3 5 mph 1010.5mb 72f 63f
1:42am 2 3 mph 1010.5mb 72f 63f
1:36am 3 5 mph 1010.5mb 72f 63f
1:30am 3 5 mph 1010.5mb 72f 64f
1:24am 3
mph
1010.4mb 72f 63f
1:18am 2
mph
1010.4mb 72f 64f
1:12am 2 3 mph 1010.4mb 72f 64f
1:06am 2 5 mph 1010.4mb 72f 64f
1:00am 2 3 mph 1010.3mb 72f 64f
12:54am 2 3 mph 1010.3mb 72f 64f
12:48am 2 3 mph 1010.3mb 72f 64f
12:42am 2 3 mph 1010.3mb 72f 64f
12:36am 3 5 mph 1010.3mb 72f 64f
12:30am 5
mph
1010.3mb 72f 63f
12:24am 5 6 mph 1010.2mb 72f 64f
12:18am 6
mph
1010.2mb 72f 64f
12:12am 5
mph
1010.2mb 72f 64f
12:06am 3
mph
1010.1mb 72f 64f
12:00am 2 3 mph 1010.2mb 72f 64f
Sun 09/14 11:54pm 3 5 mph 1010.2mb 72f 65f
11:48pm 3 5 mph 1010.2mb 72f 64f
11:42pm 3 5 mph 1010.1mb 72f 64f
11:36pm 3 5 mph 1010mb 72f 64f
11:30pm 3
mph
1010mb 72f 64f
11:24pm 3 5 mph 1010mb 72f 64f
11:18pm 3 6 mph 1010mb 72f 64f
11:12pm 6
mph
1009.9mb 72f 64f
11:06pm 6 7 mph 1009.9mb 72f 64f
11:00pm 6
mph
1009.9mb 72f 64f
10:54pm 5 6 mph 1009.9mb 72f 64f
10:48pm 6
mph
1009.8mb 72f 64f
10:42pm 5 6 mph 1009.8mb 72f 64f
10:36pm 6
mph
1009.7mb 72f 64f
10:30pm 6
mph
1009.8mb 72f 65f
10:24pm 5 6 mph 1009.8mb 72f 65f
10:18pm 6 7 mph 1009.8mb 72f 65f
10:12pm 6 8 mph 1009.8mb 72f 65f
10:06pm 8 9 mph 1009.8mb 72f 65f
10:00pm 8 9 mph 1009.8mb 72f 65f
9:54pm 7 8 mph 1009.8mb 72f 65f
9:48pm 7 8 mph 1009.7mb 72f 65f
9:42pm 7 9 mph 1009.6mb 72f 65f
9:36pm 7 8 mph 1009.6mb 72f 65f
9:30pm 8 9 mph 1009.6mb 72f 65f
9:24pm 7 9 mph 1009.6mb 72f 65f
9:18pm 7 8 mph 1009.6mb 72f 65f
9:12pm 7 8 mph 1009.6mb 72f 65f
9:06pm 6 7 mph 1009.6mb 72f 65f
9:00pm 6 7 mph 1009.5mb 72f 65f
8:54pm 6 8 mph 1009.5mb 72f 65f
8:48pm 7 8 mph 1009.4mb 72f 65f
8:42pm 6 8 mph 1009.4mb 72f 66f
8:36pm 7
mph
1009.4mb 72f 66f
8:30pm 6 7 mph 1009.2mb 72f 66f
8:24pm 6 7 mph 1009.2mb 72f 66f
8:18pm 5 6 mph 1009.1mb 72f 66f
8:12pm 5 7 mph 1009.1mb 72f 66f
8:06pm 6 7 mph 1009mb 72f 66f
8:00pm 6 8 mph 1008.9mb 72f 66f
7:54pm 7
mph
1008.9mb 72f 66f
7:48pm 6 7 mph 1008.9mb 72f 66f
7:42pm 5 7 mph 1008.8mb 72f 67f
7:36pm 6 9 mph 1008.8mb 72f 67f
7:30pm 9 11 mph 1008.8mb 72f 66f
7:24pm 10 13 mph 1008.7mb 72f 67f
7:18pm 10 11 mph 1008.8mb 72f 67f
7:12pm 10 13 mph 1008.8mb 72f 68f
7:06pm 10 11 mph 1008.8mb 72f 68f
7:00pm 7 9 mph 1008.8mb 72f 69f
6:54pm 8 10 mph 1008.8mb 72f 69f
6:48pm 8 10 mph 1008.8mb 72f 69f
6:42pm 8 10 mph 1008.8mb 72f 69f
6:36pm 8 9 mph 1008.8mb 72f 69f
6:30pm 8 9 mph 1008.8mb 72f 70f
6:24pm 8 9 mph 1008.9mb 72f 69f
6:18pm 8 10 mph 1008.9mb 72f 70f
6:12pm 9 10 mph 1008.9mb 72f 69f
6:06pm 10 11 mph 1009mb 72f 69f
6:00pm 10 11 mph 1009mb 72f 69f
5:54pm 11 14 mph 1008.9mb 72f 69f
5:48pm 11 14 mph 1008.9mb 72f 69f
5:42pm 13 15 mph 1008.9mb 72f 69f
5:36pm 13 16 mph 1009mb 72f 69f
5:30pm 13 14 mph 1009mb 72f 69f
5:24pm 13 15 mph 1009mb 72f 70f
5:18pm 13 14 mph 1009mb 72f 70f
5:06pm 13 16 mph 1009mb 72f 71f
5:00pm 14 16 mph 1009.1mb 72f 70f
4:54pm 15 16 mph 1009.1mb 72f 70f
4:48pm 14 16 mph 1009.1mb 72f 70f
4:42pm 14 16 mph 1009.2mb 72f 70f
4:36pm 14 20 mph 1009.2mb 72f 70f
4:30pm 16 17 mph 1009.2mb 72f 70f
4:24pm 14 17 mph 1009.2mb 72f 70f
4:18pm 15 18 mph 1009.2mb 72f 69f
4:12pm 15 18 mph 1009.2mb 72f 70f
4:06pm 16 18 mph 1009.2mb 72f 70f
4:00pm 16 18 mph 1009.3mb 72f 70f
3:54pm 16 21 mph 1009.3mb 72f 70f
3:48pm 16 20 mph 1009.3mb 72f 70f
3:42pm 16 20 mph 1009.3mb 72f 70f
3:36pm 16 18 mph 1009.3mb 72f 70f
3:30pm 16 17 mph 1009.4mb 72f 70f
3:24pm 14 17 mph 1009.4mb 72f 70f
3:18pm 13 16 mph 1009.4mb 72f 70f
3:12pm 13 16 mph 1009.5mb 72f 69f
3:06pm 13 15 mph 1009.6mb 72f 70f
3:00pm 13 15 mph 1009.7mb 72f 69f
2:54pm 11 15 mph 1009.8mb 72f 69f
2:48pm 13 15 mph 1009.8mb 72f 69f
2:42pm 14 17 mph 1009.9mb 72f 69f
2:36pm 14 16 mph 1009.9mb 72f 69f
2:30pm 14 15 mph 1009.9mb 72f 69f
2:24pm 14 16 mph 1010mb 72f 68f
2:18pm 14 17 mph 1010mb 72f 68f
2:12pm 11 15 mph 1010mb 72f 68f
2:06pm 13 16 mph 1010mb 72f 68f
2:00pm 13 15 mph 1010mb 72f 68f
1:54pm 14 16 mph 1010.1mb 71f 68f
1:48pm 14 17 mph 1010.2mb 71f 68f
1:42pm 14 17 mph 1010.1mb 71f 69f
1:36pm 16 18 mph 1010.3mb 71f 69f
1:30pm 17 18 mph 1010.3mb 71f 69f
1:24pm 16 18 mph 1010.3mb 71f 69f
1:18pm 15 18 mph 1010.3mb 71f 69f
1:12pm 17 20 mph 1010.4mb 71f 68f
1:06pm 14 17 mph 1010.3mb 71f 69f
1:00pm 13 16 mph 1010.4mb 71f 69f
12:54pm 14 15 mph 1010.5mb 71f 68f
12:48pm 13 15 mph 1010.5mb 71f 67f
12:42pm 14 15 mph 1010.6mb 71f 67f
12:36pm 13 17 mph 1010.5mb 71f 67f
12:30pm 11 15 mph 1010.4mb 71f 68f
12:24pm 11 14 mph 1010.5mb 71f 67f
12:18pm 9 11 mph 1010.7mb 71f 68f
12:12pm 3 6 mph 1010.7mb 71f 70f
12:06pm 3
mph
1010.7mb 71f 69f
12:00pm 2 5 mph 1010.7mb 71f 69f
11:54am 6 7 mph 1010.6mb 71f 68f
11:48am 3 6 mph 1010.6mb 71f 68f
11:42am 3 6 mph 1010.7mb 71f 68f
11:36am 2 5 mph 1010.8mb 71f 68f
11:30am 2 5 mph 1010.7mb 71f 68f
11:24am 2 6 mph 1010.7mb 71f 68f
11:18am 3 6 mph 1010.6mb 71f 68f
11:12am  -  1 mph 1010.7mb 71f 67f
11:06am 2 3 mph 1010.6mb 71f 65f
11:00am 3 6 mph 1010.5mb 71f 65f
10:54am 5 7 mph 1010.6mb 71f 65f
10:48am 7 8 mph 1010.6mb 71f 64f
10:42am 3 6 mph 1010.8mb 71f 65f
10:36am 2 8 mph 1010.8mb 71f 65f
10:30am 5
mph
1010.9mb 71f 65f
10:24am 2 5 mph 1010.9mb 71f 65f
10:18am 5 6 mph 1010.9mb 71f 64f
10:12am 3 5 mph 1010.9mb 71f 65f
10:06am 5 6 mph 1010.9mb 71f 64f
10:00am 3 6 mph 1011mb 71f 64f
9:54am 3 6 mph 1011mb 71f 64f
9:48am 3 6 mph 1011mb 71f 64f
9:42am 5 6 mph 1010.9mb 71f 63f
9:36am 2 5 mph 1010.9mb 71f 63f
9:30am 3 6 mph 1010.9mb 71f 63f
9:24am 3 6 mph 1010.9mb 71f 63f
9:18am 2 6 mph 1010.9mb 71f 63f
9:12am 2 6 mph 1010.9mb 71f 63f
9:06am 3 6 mph 1010.9mb 71f 63f
9:00am 3 6 mph 1010.9mb 71f 62f
8:54am 1 3 mph 1010.9mb 71f 62f
8:48am 5 6 mph 1010.8mb 71f 62f
8:42am 1 3 mph 1010.7mb 71f 62f
8:36am 3 5 mph 1010.7mb 71f 62f
8:30am 2 6 mph 1010.7mb 71f 62f
8:24am 3 5 mph 1010.7mb 71f 62f
8:18am 2 5 mph 1010.7mb 71f 62f
8:12am 5 6 mph 1010.7mb 71f 62f
8:06am 3 5 mph 1010.7mb 71f 62f
8:00am 2 3 mph 1010.7mb 71f 62f
7:54am 3 5 mph 1010.7mb 71f 62f
7:48am 2 3 mph 1010.7mb 71f 62f
7:42am 2 3 mph 1010.7mb 71f 62f
7:36am 1 2 mph 1010.6mb 71f 62f
7:30am 2 3 mph 1010.6mb 71f 61f
7:24am  -  2 mph 1010.5mb 71f 61f
7:18am  -  2 mph 1010.5mb 71f 61f
7:12am 2
mph
1010.5mb 71f 61f
7:06am  -  1 mph 1010.4mb 71f 61f
7:00am  -  2 mph 1010.4mb 71f 61f
6:54am  -  1 mph 1010.3mb 71f 61f
6:48am  -  1 mph 1010.3mb 71f 61f
6:42am  -  2 mph 1010.3mb 71f 60f
6:36am 2
mph
1010.3mb 71f 60f
6:30am 2 3 mph 1010.2mb 71f 60f
6:24am 1 3 mph 1010.2mb 71f 60f
6:18am 2 3 mph 1010.2mb 71f 60f
6:12am 3 5 mph 1010.1mb 71f 60f
6:06am 5
mph
1010.1mb 71f 60f
6:00am 3 5 mph 1010.1mb 71f 61f
5:54am 2 3 mph 1010.1mb 71f 60f
5:48am 2 3 mph 1010mb 71f 60f
5:42am 2 3 mph 1010mb 71f 60f
5:36am 3 5 mph 1010mb 71f 60f
5:30am 3 5 mph 1009.9mb 71f 60f
5:24am 3 5 mph 1009.9mb 71f 60f
5:18am 3 5 mph 1009.9mb 71f 60f
5:12am 5
mph
1009.8mb 71f 60f
5:06am 3 5 mph 1009.8mb 71f 60f
5:00am 5 6 mph 1009.8mb 71f 60f
4:54am 5 6 mph 1009.8mb 71f 60f
4:48am 5 6 mph 1009.8mb 71f 60f
4:42am 5 6 mph 1009.7mb 71f 60f
4:36am 6 7 mph 1009.8mb 71f 60f
4:30am 6 7 mph 1009.8mb 71f 60f
4:24am 5 6 mph 1009.8mb 71f 60f
4:18am 6 7 mph 1009.7mb 71f 60f
4:12am 6 8 mph 1009.7mb 71f 60f
4:06am 7 8 mph 1009.7mb 71f 60f
4:00am 7 8 mph 1009.7mb 71f 60f
3:54am 7 8 mph 1009.7mb 71f 60f
3:48am 6 7 mph 1009.7mb 71f 60f
3:42am 5 6 mph 1009.7mb 71f 61f
3:36am 5
mph
1009.7mb 71f 61f
3:30am 3
mph
1009.7mb 71f 61f
3:24am 3 5 mph 1009.6mb 71f 61f
3:18am 3 5 mph 1009.6mb 71f 61f
3:12am 3 5 mph 1009.6mb 71f 61f
3:06am 3 5 mph 1009.6mb 71f 61f
3:00am 3 5 mph 1009.6mb 71f 61f
2:54am 3
mph
1009.6mb 71f 61f
2:48am 3
mph
1009.6mb 71f 61f
2:42am 3
mph
1009.6mb 71f 61f
2:36am 3 5 mph 1009.6mb 71f 62f
2:30am 5
mph
1009.6mb 71f 62f
2:24am 3 5 mph 1009.6mb 71f 61f
2:18am 3 5 mph 1009.7mb 71f 62f
2:12am 3 5 mph 1009.7mb 72f 62f
2:06am 3 5 mph 1009.6mb 72f 62f
2:00am 3 5 mph 1009.6mb 72f 62f
1:54am 3 5 mph 1009.7mb 71f 62f
1:48am 5
mph
1009.7mb 72f 62f
1:42am 5
mph
1009.6mb 72f 62f
1:36am 5
mph
1009.7mb 72f 62f
1:30am 3 5 mph 1009.7mb 72f 62f
1:24am 3
mph
1009.6mb 72f 62f
1:18am 3
mph
1009.6mb 72f 62f
1:12am 2
mph
1009.6mb 72f 62f
1:06am 2 3 mph 1009.6mb 72f 62f
1:00am 2 3 mph 1009.6mb 72f 62f
12:54am 3
mph
1009.6mb 72f 62f
12:48am 2 3 mph 1009.6mb 72f 62f
12:42am 3
mph
1009.6mb 72f 62f
12:36am 3
mph
1009.6mb 72f 62f
12:30am 3 5 mph 1009.6mb 72f 62f
12:24am 3 5 mph 1009.5mb 72f 62f
12:18am 3 5 mph 1009.5mb 72f 62f
12:12am 5 6 mph 1009.5mb 72f 63f
12:06am 5 6 mph 1009.5mb 72f 63f
12:00am 3 5 mph 1009.5mb 72f 63f
Sat 09/13 11:54pm 3 5 mph 1009.6mb 72f 63f
11:48pm 3 5 mph 1009.6mb 72f 63f
11:42pm 5
mph
1009.5mb 72f 63f
11:24pm 3 5 mph 1009.6mb 72f 63f
11:18pm 3 5 mph 1009.5mb 72f 63f
11:12pm 5 6 mph 1009.6mb 72f 63f
11:00pm 5 6 mph 1009.5mb 72f 63f
10:54pm 5 6 mph 1009.5mb 72f 63f
10:48pm 6 7 mph 1009.5mb 72f 63f
10:42pm 6 7 mph 1009.4mb 72f 63f
10:36pm 6 7 mph 1009.4mb 72f 63f
10:30pm 6 7 mph 1009.4mb 72f 63f
10:24pm 5 7 mph 1009.3mb 72f 64f
10:18pm 5 6 mph 1009.2mb 72f 64f
10:12pm 5 6 mph 1009.3mb 72f 64f
10:06pm 5 6 mph 1009.3mb 72f 64f
10:00pm 5
mph
1009.3mb 72f 64f
9:54pm 5
mph
1009.1mb 72f 64f
9:48pm 3 5 mph 1009.1mb 72f 64f
9:42pm 3 6 mph 1009.1mb 72f 64f
9:36pm 5 6 mph 1009.1mb 72f 64f
9:30pm 5 6 mph - 72f 64f
9:24pm 5 6 mph - 72f 64f
9:18pm 6 7 mph 1009.1mb 72f 64f
9:12pm 6 7 mph 1008.9mb 72f 64f
9:06pm 6 7 mph 1008.9mb 72f 64f
9:00pm 6 8 mph 1008.9mb 72f 64f
8:54pm 5 6 mph 1008.9mb 72f 64f
8:42pm 5 6 mph 1008.7mb 72f 64f
8:36pm 5 7 mph 1008.7mb 72f 64f
8:30pm 6 7 mph 1008.7mb 72f 64f
8:24pm 6 8 mph 1008.6mb 72f 64f
8:18pm 7 8 mph 1008.5mb 72f 64f
8:12pm 7 9 mph 1008.5mb 72f 64f
8:06pm 9 10 mph 1008.4mb 72f 64f
8:00pm 8 10 mph 1008.4mb 72f 64f
7:54pm 8 10 mph 1008.4mb 72f 64f
7:48pm 8 10 mph 1008.2mb 72f 64f